Date and Time,30m Wind Direction,30m Wind Speed,30m Wind Vert,30m Quality,40m Wind Direction,40m Wind Speed,40m Wind Vert,40m Quality,50m Wind Direction,50m Wind Speed,50m Wind Vert,50m Quality,60m Wind Direction,60m Wind Speed,60m Wind Vert,60m Quality,80m Wind Direction,80m Wind Speed,80m Wind Vert,80m Quality,100m Wind Direction,100m Wind Speed,100m Wind Vert,100m Quality,120m Wind Direction,120m Wind Speed,120m Wind Vert,120m Quality,140m Wind Direction,140m Wind Speed,140m Wind Vert,140m Quality,160m Wind Direction,160m Wind Speed,160m Wind Vert,160m Quality,180m Wind Direction,180m Wind Speed,180m Wind Vert,180m Quality,200m Wind Direction,200m Wind Speed,200m Wind Vert,200m Quality,30m Wind Turbulence,40m Wind Turbulence,50m Wind Turbulence,60m Wind Turbulence,80m Wind Turbulence,100m Wind Turbulence,120m Wind Turbulence,140m Wind Turbulence,160m Wind Turbulence,180m Wind Turbulence,200m Wind Turbulence
7/2/2015 12:00 AM,237.60,5.61,-0.04,99,239.10,5.59,-0.03,99,239.40,5.66,-0.06,98,237.70,5.68,-0.19,98,233.60,5.68,-0.23,97,233.70,4.84,-0.34,94,233.80,8.90,-0.73,89,297.40,7.85,-0.57,69,206.00,5.11,-1.26,59,259.90,7.98,-1.66,54,41.30,9.36,-2.04,60,0.05,0.08,0.12,0.29,0.33,0.61,0.47,0.89,0.74,0.84,1.16
7/2/2015 12:10 AM,239.40,5.49,0.01,99,240.00,4.93,-0.03,99,245.40,4.95,-0.11,98,239.90,5.77,-0.14,99,229.00,5.79,-0.16,96,242.10,5.78,-0.99,90,281.00,9.24,-1.87,85,8.90,6.48,-2.02,59,318.40,9.18,-3.07,48,29.00,9.44,-2.22,47,109.60,4.52,-2.65,39,0.06,0.10,0.21,0.28,0.38,0.62,0.85,1.66,0.70,0.66,1.34
7/2/2015 12:20 AM,238.10,5.42,-0.02,99,239.70,4.85,0.02,99,245.80,5.43,-0.06,98,241.40,5.73,-0.15,98,243.30,6.20,-0.15,95,244.80,4.19,-0.44,88,170.10,1.92,-0.52,59,195.50,2.52,-1.31,58,357.80,4.95,-2.04,45,163.50,4.95,-0.26,29,157.30,18.98,-0.72,36,0.08,0.14,0.08,0.23,0.29,0.66,1.60,0.79,1.47,0.96,0.42
7/2/2015 12:30 AM,234.10,4.83,-0.04,99,235.60,4.98,0.01,99,235.10,5.40,-0.05,99,229.90,5.52,-0.10,98,251.90,6.50,-0.37,91,277.80,0.76,-1.31,45,149.60,14.62,-2.15,30,298.70,16.14,-3.01,39,330.60,1.97,-2.32,37,323.60,4.02,-1.65,32,64.20,5.79,-3.36,38,0.07,0.11,0.13,0.27,0.44,3.88,0.70,0.83,1.38,0.74,65.54
7/2/2015 12:40 AM,232.80,5.16,-0.06,99,234.90,3.95,-0.14,96,233.40,4.26,-0.28,97,235.30,3.79,-0.42,93,238.20,4.32,-0.65,90,130.60,2.25,-1.72,65,224.40,2.70,-3.36,63,312.30,2.94,-3.33,49,300.90,5.10,-4.01,41,344.80,5.99,-3.30,32,319.60,8.94,-4.81,30,0.09,0.29,0.43,0.55,0.91,3.07,3.32,7.12,0.64,0.96,0.69
7/2/2015 12:50 AM,220.40,4.19,-0.08,98,219.30,4.43,-0.01,98,230.00,4.28,-0.10,97,227.50,4.33,-0.14,97,240.60,5.03,-0.36,96,245.40,6.15,-0.33,93,195.60,3.46,-1.76,58,179.60,3.97,-2.19,28,138.80,5.57,-3.57,54,115.80,1.75,-3.12,50,93.60,4.78,-3.22,37,0.11,0.11,0.23,0.34,0.41,0.43,54.60,1.48,2.81,1.17,0.91
7/2/2015 1:00 AM,210.70,4.73,-0.03,98,215.10,5.22,-0.02,97,216.20,5.28,-0.02,98,218.80,5.53,-0.05,97,223.60,5.71,-0.04,98,229.40,5.83,-0.09,98,232.90,6.02,-0.09,97,233.10,6.71,-0.14,95,240.90,5.93,-0.34,92,264.40,6.93,-0.30,57,241.70,14.78,-0.49,19,0.07,0.06,0.07,0.08,0.06,0.09,0.14,0.08,0.38,0.37,0.42
7/2/2015 1:10 AM,211.70,4.47,-0.14,97,210.70,5.17,-0.05,97,217.00,5.58,-0.06,98,222.20,5.67,-0.02,98,229.00,5.58,-0.03,99,228.30,5.74,-0.05,99,237.90,6.22,-0.12,99,236.70,6.54,-0.07,99,236.80,7.17,-0.18,96,236.60,6.75,-0.19,94,238.60,7.34,-0.37,90,0.08,0.06,0.07,0.05,0.05,0.05,0.12,0.12,0.21,0.22,0.22
7/2/2015 1:20 AM,216.30,5.04,-0.13,98,224.20,5.29,-0.11,99,228.00,5.64,-0.06,100,230.40,5.37,-0.05,99,236.40,5.79,-0.12,99,237.00,6.46,-0.11,98,236.80,6.06,-0.25,97,239.70,6.27,-0.29,96,245.70,5.50,-0.46,93,243.30,3.85,-0.88,90,300.80,3.26,-1.70,57,0.07,0.07,0.04,0.05,0.08,0.08,0.16,0.19,0.43,0.43,0.82
7/2/2015 1:30 AM,230.00,4.51,-0.09,99,235.50,4.73,-0.09,99,238.50,4.88,-0.07,99,240.30,5.36,-0.10,99,241.50,6.07,-0.13,98,240.00,5.62,-0.19,93,247.40,3.85,-0.54,87,23.80,2.62,-1.01,59,48.70,5.86,-0.90,57,45.00,7.13,-0.92,48,38.80,6.46,-0.87,44,0.08,0.06,0.06,0.07,0.10,0.22,0.58,0.65,0.37,0.28,0.32
7/2/2015 1:40 AM,235.70,4.02,-0.10,99,240.30,3.58,-0.01,99,244.20,4.37,-0.01,98,245.00,5.02,-0.04,96,248.80,5.44,-0.06,94,264.80,4.43,-0.04,89,351.70,4.08,-0.02,56,44.70,7.04,0.11,52,55.30,7.89,-0.11,41,70.00,13.29,0.44,34,57.80,7.53,-0.02,35,0.09,0.10,0.05,0.07,0.10,0.25,0.48,0.26,0.22,0.20,0.33
7/2/2015 1:50 AM,237.60,3.34,-0.12,97,236.30,3.80,-0.07,98,242.40,4.31,-0.05,99,244.20,4.99,-0.05,99,246.60,5.50,-0.14,98,290.20,1.79,-0.81,85,62.70,4.95,-1.60,56,43.10,3.84,-2.10,45,56.70,5.04,-2.12,46,48.40,3.90,-2.23,45,82.00,6.17,-1.70,50,0.11,0.09,0.05,0.05,0.10,0.69,0.39,0.39,0.29,0.43,0.32
7/2/2015 2:00 AM,232.30,2.34,-0.08,96,243.10,2.84,-0.08,97,243.10,3.07,-0.08,98,239.30,3.77,-0.10,98,244.60,4.86,-0.12,98,244.50,4.62,-0.24,95,258.30,5.26,-0.19,93,308.70,2.67,-0.08,69,37.20,8.64,-0.38,50,47.30,8.28,-0.25,28,38.30,9.64,-0.22,30,0.22,0.20,0.22,0.12,0.08,0.18,0.26,1.26,0.41,0.40,0.29
7/2/2015 2:10 AM,248.30,2.67,-0.13,97,248.20,3.32,-0.03,97,243.50,3.67,-0.05,98,245.80,3.33,-0.13,96,236.30,3.45,-0.34,91,37.10,3.94,-1.35,73,31.40,3.75,-1.64,59,40.70,2.94,-1.84,40,55.50,5.64,-1.33,31,41.60,4.85,-1.81,29,59.30,2.56,-1.71,27,0.17,0.12,0.15,0.21,0.37,0.38,0.41,0.66,0.38,0.34,0.58
7/2/2015 2:20 AM,258.10,1.89,-0.17,94,256.20,1.45,-0.04,97,257.40,2.38,-0.05,94,259.60,2.23,-0.15,95,262.80,2.93,-0.25,94,260.70,3.34,-0.29,94,262.70,3.44,-0.39,91,266.90,3.34,-0.39,92,275.80,3.36,-0.43,90,303.20,2.51,-0.36,78,33.80,4.75,-0.71,67,0.33,0.31,0.26,1.21,0.81,1.11,1.59,1.13,0.74,2.79,0.32
7/2/2015 2:30 AM,263.20,4.22,-1.56,98,252.00,4.66,-1.56,98,246.20,4.97,-1.47,99,257.90,5.35,-1.45,98,245.90,4.61,-1.36,98,260.80,4.16,-1.62,97,259.90,4.70,-2.17,94,285.70,2.81,-3.41,85,279.90,2.23,-4.01,69,199.40,4.32,-4.78,51,279.50,4.03,-4.98,40,0.78,0.69,0.60,0.56,0.65,0.71,0.69,1.23,2.79,2.36,2.02
7/2/2015 2:40 AM,282.30,4.26,-0.32,98,286.20,4.78,-0.28,99,288.90,4.78,-0.23,97,290.80,5.04,-0.27,95,300.30,3.85,-0.52,92,304.90,3.95,-0.93,84,325.20,6.35,-1.28,70,350.80,5.11,-1.30,41,5.70,7.62,-1.30,33,353.20,3.67,-2.06,24,16.20,7.97,-0.83,22,0.45,0.39,0.37,0.38,0.58,0.67,0.34,0.46,0.34,0.44,0.24
7/2/2015 2:50 AM,239.10,2.50,-0.03,98,255.40,2.74,-0.02,98,257.90,2.57,0.04,97,263.00,3.08,0.04,97,262.10,3.01,-0.14,93,259.70,2.95,-0.16,78,206.50,4.56,-0.76,66,186.00,4.64,-1.45,49,75.20,4.71,-2.86,27,41.50,3.16,-2.20,32,135.40,4.79,-4.38,23,0.15,0.16,0.16,0.12,0.39,0.54,0.43,0.89,0.36,0.70,0.60
7/2/2015 3:00 AM,217.30,1.77,-0.20,96,246.20,1.76,-0.05,95,260.40,1.67,-0.04,93,269.50,1.78,-0.07,93,276.50,2.31,-0.06,92,276.40,2.24,-0.19,89,218.40,1.02,-0.68,76,59.10,2.48,-1.24,52,32.80,8.12,-1.94,31,36.40,5.87,-2.21,14,239.70,2.89,-2.70,25,0.26,0.38,0.30,0.34,0.32,0.72,0.66,1.07,0.76,0.40,1.23
7/2/2015 3:10 AM,233.60,2.07,-0.21,96,253.90,2.53,-0.10,96,246.70,3.08,-0.07,96,245.40,3.18,-0.10,94,210.70,5.41,-0.52,87,192.70,9.43,-1.19,86,186.80,19.78,-2.93,22,158.50,17.47,-3.84,12,149.00,14.30,-3.71,18,151.00,15.82,-4.13,8,127.80,8.56,-4.45,3,0.24,0.30,0.13,0.25,0.32,0.34,0.24,0.45,0.56,0.41,0.43
7/2/2015 3:20 AM,215.30,4.52,-0.81,94,222.60,4.32,-0.55,96,225.90,4.74,-0.53,96,213.10,3.99,-1.29,94,191.50,2.65,-3.13,86,159.40,5.98,-2.99,78,257.10,2.75,-2.94,83,327.10,9.56,-4.54,49,257.70,10.02,-4.87,43,298.00,7.71,-4.56,32,295.80,10.43,-4.60,27,0.50,0.52,0.43,0.74,0.96,0.92,1.33,0.41,0.65,0.78,0.36
7/2/2015 3:30 AM,260.90,7.52,-7.02,98,278.50,6.15,-7.23,97,267.60,5.99,-6.79,94,278.60,6.29,-6.69,93,270.30,6.49,-7.08,90,228.10,7.56,-6.45,90,245.90,6.06,-5.96,81,262.10,8.58,-5.75,71,252.60,8.62,-4.28,56,271.70,12.08,-4.73,68,277.70,12.79,-4.75,62,0.37,0.36,0.44,0.45,0.47,0.57,0.79,0.49,0.47,0.45,0.43
7/2/2015 3:40 AM,243.80,11.41,-7.25,98,255.00,8.75,-7.61,98,253.60,7.83,-7.92,97,258.00,7.85,-7.95,96,265.10,6.62,-7.96,92,267.70,6.19,-7.89,85,281.20,4.58,-8.15,54,269.60,8.40,-7.83,13,280.00,5.98,-7.86,3,190.40,4.66,-7.29,0,219.90,18.45,-3.44,0,0.17,0.18,0.13,0.14,0.25,0.22,0.19,0.17,1.04,1.26,0.09
7/2/2015 3:50 AM,279.40,6.15,-2.82,99,277.00,7.50,-4.06,99,294.90,6.04,-4.50,99,296.90,4.50,-4.35,99,295.90,5.84,-4.92,96,298.70,6.45,-5.77,92,303.10,8.07,-6.18,91,308.20,9.81,-6.34,84,306.60,9.18,-6.32,75,291.20,10.81,-6.19,54,288.30,7.59,-6.12,48,0.53,0.39,0.50,0.57,0.44,0.34,0.23,0.18,0.23,0.24,0.23
7/2/2015 4:00 AM,308.90,5.94,-7.04,100,301.20,6.54,-6.92,99,294.40,6.83,-7.04,99,304.50,6.76,-7.28,99,299.70,7.41,-7.23,97,302.20,6.59,-7.27,94,297.10,6.47,-7.44,90,301.00,5.98,-7.44,88,293.40,7.16,-7.46,82,278.70,7.43,-7.20,55,261.50,12.84,-6.36,24,0.27,0.26,0.24,0.21,0.21,0.22,0.20,0.35,0.37,0.34,0.34
7/2/2015 4:10 AM,332.00,4.55,-2.83,98,346.40,3.40,-2.58,98,347.70,4.78,-3.07,98,353.70,5.88,-3.11,97,0.20,6.45,-2.39,95,340.80,7.28,-1.54,93,336.00,6.66,-0.79,91,331.10,4.35,0.01,82,324.20,4.20,0.11,67,296.10,3.70,0.11,57,306.20,2.90,-0.03,54,0.60,0.83,0.64,0.55,0.47,0.45,0.39,0.38,0.31,0.25,0.78
7/2/2015 4:20 AM,349.40,2.89,-0.03,96,355.60,2.79,-0.12,97,349.30,3.16,-0.17,97,348.10,3.60,-0.18,97,343.50,3.80,-0.05,96,330.90,3.82,-0.04,97,322.90,3.48,-0.01,97,313.40,3.08,-0.13,98,311.90,2.29,-0.26,94,325.70,2.82,-0.32,94,324.30,3.23,-0.29,92,0.16,0.22,0.22,0.34,0.09,0.15,0.17,0.26,0.45,0.72,0.61
7/2/2015 4:30 AM,2.40,2.66,-0.11,98,9.40,2.92,-0.14,97,6.30,3.71,-0.06,99,4.30,3.79,-0.14,98,2.70,4.12,-0.17,98,5.40,4.46,-0.23,96,358.50,3.81,-0.17,97,343.90,4.46,-0.32,95,327.40,5.06,-0.57,91,331.80,5.83,-0.60,85,4.30,6.82,-1.00,90,0.15,0.13,0.09,0.13,0.19,0.28,0.23,0.34,0.57,0.58,0.42
7/2/2015 4:40 AM,20.10,2.13,-0.11,97,358.60,1.98,-0.30,95,330.10,1.28,-0.39,93,331.80,0.87,-0.43,93,341.70,1.07,-0.43,94,353.70,1.58,-0.54,92,312.30,1.28,-0.44,93,294.50,1.42,-0.86,89,141.10,1.98,-2.10,75,218.60,0.14,-1.82,70,26.20,1.11,-2.53,52,0.21,0.32,0.92,1.29,1.07,0.64,0.98,1.25,0.89,42.21,3.87
7/2/2015 4:50 AM,8.90,1.87,-0.17,96,14.50,1.74,-0.44,94,6.30,1.60,-0.18,95,347.10,3.03,-0.28,94,354.70,2.75,-0.19,89,256.90,4.24,-2.07,64,270.70,2.61,-0.55,83,316.00,2.98,-0.27,91,298.50,3.54,-0.75,79,274.90,6.38,-2.18,57,272.10,13.05,-3.54,49,0.27,0.34,0.67,0.41,0.94,1.01,1.21,1.19,1.64,0.65,0.51
7/2/2015 5:00 AM,346.90,2.05,-0.14,98,42.20,0.74,-0.07,78,9.60,0.27,-0.13,91,30.80,0.82,-0.20,67,355.50,3.72,-0.10,89,346.00,3.63,-0.15,93,355.00,4.90,-0.24,71,350.10,3.13,-0.41,39,2.40,5.56,-0.75,20,357.50,8.72,-0.73,7,56.60,9.71,-0.69,7,0.23,1.38,45.16,2.41,0.20,0.14,0.19,0.51,0.30,0.32,0.18
7/2/2015 5:10 AM,326.70,1.54,-0.05,96,13.00,1.15,-0.05,93,338.50,2.94,-0.11,94,320.30,3.27,-0.03,96,319.10,3.37,-0.02,97,323.30,4.18,-0.12,91,342.80,4.81,-0.57,65,2.80,4.22,-0.79,32,32.30,13.23,-2.04,7,26.20,9.25,-1.38,5,9.90,1.97,-1.96,17,0.33,0.51,0.26,0.25,0.12,0.18,0.56,0.38,0.16,0.15,0.79
7/2/2015 5:20 AM,306.70,1.92,-0.07,96,321.70,1.86,-0.10,96,324.10,2.57,-0.09,97,320.00,2.55,-0.08,96,318.30,2.91,-0.09,92,3.40,4.39,-0.50,46,348.80,5.17,-0.83,7,23.90,4.50,-1.34,15,65.30,1.17,-1.92,20,33.00,6.56,-2.64,16,120.00,5.36,-2.65,17,0.24,0.25,0.14,0.12,0.23,0.21,0.31,0.50,0.34,0.41,0.59
7/2/2015 5:30 AM,224.70,1.73,-0.12,94,282.20,2.15,-0.14,96,298.20,1.57,-0.11,94,300.40,2.19,-0.08,93,240.80,2.33,-0.33,65,251.30,4.01,-0.61,54,227.50,1.46,-0.42,49,267.10,2.28,-0.82,29,324.40,2.54,-0.51,56,263.10,0.99,-0.84,47,251.50,2.08,-0.68,51,0.30,0.24,0.32,0.34,0.70,0.51,1.00,1.23,0.73,0.55,0.89
7/2/2015 5:40 AM,228.90,2.34,-0.06,93,244.40,1.64,-0.12,92,255.50,1.70,-0.21,79,236.20,2.53,-0.34,69,254.30,2.16,-0.26,80,240.00,2.60,-0.28,88,221.30,2.61,-0.53,65,254.60,4.76,-0.78,50,246.50,1.60,-1.34,37,216.50,5.26,-1.24,49,256.10,3.78,-0.92,38,0.20,0.31,0.46,0.35,0.47,0.32,0.65,0.46,0.71,0.61,0.31
7/2/2015 5:50 AM,197.90,3.15,-0.01,94,194.60,2.78,-0.04,96,203.80,2.42,-0.08,96,204.90,2.82,-0.06,96,190.50,2.48,-0.08,95,208.60,2.07,-0.10,94,142.90,0.69,-0.33,93,18.80,0.84,-0.61,91,55.20,3.73,-1.02,62,63.00,5.45,-2.66,13,7.00,8.40,-2.08,21,0.16,0.18,0.23,0.16,0.32,0.36,1.92,1.64,0.54,0.35,0.28
7/2/2015 6:00 AM,187.90,4.02,-0.06,97,187.00,4.33,-0.06,98,183.40,3.86,-0.01,97,184.90,3.81,0.01,94,189.50,4.41,-0.09,90,193.00,3.44,-0.06,93,212.90,2.61,-0.14,92,230.10,1.96,-0.16,89,196.30,2.46,-0.69,42,191.50,8.30,-1.69,11,298.70,2.16,-1.18,11,0.09,0.08,0.14,0.16,0.19,0.17,0.19,0.43,1.63,1.09,0.85
7/2/2015 6:10 AM,194.10,2.35,-0.02,97,186.00,3.19,-0.06,97,194.30,2.81,-0.05,97,173.50,2.22,-0.05,96,212.30,2.13,-0.13,95,222.70,1.82,-0.08,96,242.60,1.73,-0.06,96,284.90,3.88,-0.37,90,204.40,1.63,-2.03,33,269.70,5.82,-3.28,30,289.20,4.47,-3.83,21,0.21,0.21,0.28,0.32,0.57,0.46,0.45,0.32,5.84,0.57,0.96
7/2/2015 6:20 AM,218.50,1.77,-0.14,93,181.10,2.77,-0.30,95,206.30,3.61,-0.91,96,194.80,3.88,-1.48,91,153.50,6.62,-1.83,74,164.10,3.09,-0.70,81,157.80,2.13,-0.42,93,259.40,3.18,-0.73,95,200.60,4.37,-1.14,85,209.40,2.23,-3.18,58,163.80,5.29,-3.98,56,0.25,0.65,0.80,1.34,0.93,2.39,1.13,0.61,0.96,2.15,0.51
7/2/2015 6:30 AM,46.10,4.52,-0.98,94,359.70,8.38,-2.66,91,311.30,7.39,-3.32,91,37.90,3.88,-2.75,91,352.20,2.40,-1.28,95,2.30,4.33,-2.76,93,169.30,0.18,-3.55,89,198.40,2.76,-5.47,86,300.90,0.56,-6.66,67,234.50,0.55,-6.71,71,7.90,0.27,-6.63,77,0.41,0.40,0.47,1.18,1.03,0.92,4.66,1.10,1.98,10.37,0.78
7/2/2015 6:40 AM,35.90,3.17,-0.77,91,348.00,0.75,-1.07,92,244.90,5.25,-2.10,92,213.90,1.69,-1.27,91,180.30,2.28,-1.92,90,96.50,2.42,-3.59,89,220.70,4.08,-4.41,87,213.70,1.23,-6.71,64,168.40,0.67,-6.65,71,174.90,1.19,-6.72,57,159.10,1.44,-6.60,63,0.48,2.53,0.57,0.83,7.94,4.12,1.02,2.06,0.46,0.87,0.46
7/2/2015 6:50 AM,38.90,7.82,-1.76,26,297.30,1.05,-2.07,88,231.80,10.46,-2.38,90,211.30,7.89,-1.93,91,210.10,6.70,-2.58,86,212.50,7.92,-4.15,87,228.30,3.86,-5.45,63,131.30,3.02,-6.28,53,171.30,1.79,-6.60,36,154.80,1.10,-6.54,50,152.40,1.38,-6.56,52,0.26,2.87,0.33,0.54,0.78,0.56,0.97,0.38,0.28,1.86,1.07
7/2/2015 7:00 AM,5.90,1.34,-0.50,59,49.70,4.70,-1.23,86,237.60,3.33,-2.34,87,232.00,6.36,-1.67,87,157.10,6.68,-1.99,65,249.80,3.62,-2.08,88,158.80,5.20,-1.80,68,212.50,8.52,-4.09,52,194.10,9.51,-3.68,39,223.00,4.31,-6.20,32,211.10,2.02,-6.52,29,0.47,0.87,0.96,0.63,0.88,1.06,1.21,0.76,0.42,0.30,0.84
7/2/2015 7:10 AM,287.50,1.55,-0.28,94,277.80,2.05,-0.20,95,230.30,1.41,-0.21,93,231.80,1.95,-0.80,91,220.80,3.61,-0.45,91,249.00,1.71,-0.26,95,276.80,2.81,-0.46,92,222.70,1.93,-1.04,88,116.20,5.86,-2.27,52,251.80,1.70,-4.02,31,261.00,6.98,-4.72,26,0.45,0.45,1.02,0.94,0.52,0.74,0.56,1.43,1.01,1.60,0.92
7/2/2015 7:20 AM,271.70,1.40,-0.07,54,257.10,1.33,-0.17,94,221.60,1.05,-0.02,93,224.00,1.85,-0.05,94,241.30,2.10,-0.15,90,266.40,1.58,-0.05,92,305.90,1.84,-0.07,94,315.50,2.59,-0.21,90,274.00,7.26,-2.28,30,279.20,5.02,-4.62,12,26.10,1.56,-4.91,23,0.32,0.38,0.48,0.41,0.36,0.52,0.89,0.68,0.43,1.36,0.51
7/2/2015 7:30 AM,248.70,1.05,-0.12,80,289.60,0.98,-0.23,95,214.00,1.37,-0.18,93,232.40,1.65,-0.10,94,213.80,1.71,-0.29,91,280.10,1.26,-0.13,93,290.60,0.88,-0.26,89,258.90,1.39,-0.42,80,140.90,4.57,-1.85,37,191.00,10.72,-3.56,16,217.00,13.25,-4.90,13,0.29,0.39,1.10,0.36,0.49,1.11,14.54,0.81,0.70,0.46,0.19
7/2/2015 7:40 AM,235.70,1.81,0.03,18,269.00,0.35,-0.18,92,170.40,1.62,-0.21,84,198.30,0.75,-0.17,89,214.90,2.07,-0.18,82,212.60,1.82,-0.25,89,80.90,0.29,-0.32,80,164.70,4.84,-1.05,52,165.50,6.78,-4.54,2,286.60,5.79,-6.18,15,284.00,5.42,-5.33,5,0.29,2.77,0.48,0.74,0.32,0.55,0.64,0.44,0.30,0.97,1.57
7/2/2015 7:50 AM,188.40,1.82,-0.26,47,183.50,7.06,-0.71,94,183.90,6.68,-1.05,89,199.20,10.99,-1.92,86,187.00,14.52,-1.50,90,197.30,7.45,-1.04,91,182.50,10.95,-2.44,86,171.00,9.28,-3.96,52,227.70,18.61,-5.95,13,221.10,5.13,-7.58,28,219.70,4.98,-7.65,14,0.46,0.33,0.58,0.38,0.25,0.43,0.38,0.53,0.20,1.06,0.88
7/2/2015 8:00 AM,243.60,1.20,-0.06,92,302.30,1.73,-0.10,63,268.10,2.29,-0.20,44,261.00,1.73,-0.17,53,280.80,2.24,-0.25,22,305.50,3.13,-0.34,20,341.60,3.22,-0.42,14,325.50,14.38,-2.32,6,337.40,22.42,-4.28,4,309.30,28.84,-3.42,1,355.80,20.07,-6.51,1,0.22,0.43,0.32,0.39,0.29,0.36,0.33,0.14,0.15,0.08,0.03
7/2/2015 8:10 AM,257.90,1.85,-0.14,89,299.10,3.76,-0.65,52,292.20,3.22,-0.27,33,295.30,4.42,-0.36,24,309.50,12.77,-1.85,13,3.00,20.80,-4.57,0,357.30,25.67,-5.36,8,1.00,28.45,-6.00,0,0.60,27.31,-6.03,0,0.50,27.32,-6.03,0,1.70,27.64,-6.09,0,0.22,0.44,0.29,0.26,0.19,0.12,0.10,0.01,0.02,0.02,0.01
7/2/2015 8:20 AM,288.20,4.56,-0.67,27,311.10,12.37,-1.92,55,321.50,9.61,-1.81,41,311.10,4.79,-1.47,34,318.70,18.37,-3.28,17,345.20,21.95,-5.90,6,354.10,21.32,-6.11,6,7.40,2.11,-8.08,3,0.70,15.84,-7.04,3,332.60,10.86,-6.72,3,352.60,18.75,-6.55,0,0.44,0.27,0.26,0.61,0.14,0.21,0.17,0.20,0.14,0.31,0.04
7/2/2015 8:30 AM,253.90,1.85,-0.15,64,286.30,2.67,-0.27,65,297.50,6.55,-0.78,48,293.00,15.22,-1.85,7,291.70,13.44,-1.63,13,293.80,24.21,-3.17,12,9.70,26.80,-5.82,2,358.70,25.83,-6.12,2,356.70,14.80,-6.19,0,2.70,20.59,-6.71,1,350.50,19.67,-5.64,1,0.40,0.49,0.17,0.08,0.13,0.12,0.07,0.03,0.11,0.05,0.13
7/2/2015 8:40 AM,267.60,1.34,-0.11,93,291.60,2.34,-0.23,67,299.00,9.32,-0.95,13,282.70,4.11,-0.33,30,247.00,3.30,-0.45,48,281.90,5.13,-2.19,1,281.00,21.35,-3.69,0,259.50,23.65,-4.82,0,264.00,23.31,-4.65,0,257.30,24.60,-5.05,0,258.20,24.73,-3.84,4,0.18,0.23,0.10,0.24,0.45,0.52,0.05,0.05,0.05,0.03,0.24
7/2/2015 8:50 AM,275.70,1.93,-0.25,94,308.40,10.89,-1.90,53,331.60,9.20,-2.56,34,271.10,10.16,-2.16,35,261.60,10.55,-2.50,52,303.40,9.63,-1.95,40,63.60,4.31,-6.08,6,245.20,8.06,-5.60,7,58.90,3.37,-6.03,11,43.10,8.72,-6.63,6,70.70,10.83,-5.92,6,0.31,0.32,0.30,0.81,0.67,0.68,0.65,2.56,0.26,0.23,0.28
7/2/2015 9:00 AM,231.80,1.22,-0.20,93,355.90,5.74,-1.51,46,358.50,9.88,-4.57,31,281.30,2.91,-4.03,37,199.00,6.30,-6.05,30,298.80,7.09,-5.43,37,2.30,7.92,-4.92,43,204.80,10.96,-5.50,38,270.10,9.97,-5.64,44,219.60,3.67,-5.11,41,281.20,6.08,-5.75,38,0.56,0.42,0.29,0.71,0.53,0.93,1.63,0.43,0.56,1.10,0.43
7/2/2015 9:10 AM,217.40,0.67,-0.21,94,112.90,1.18,-0.74,53,92.80,6.89,-2.90,19,249.00,6.74,-4.78,11,150.40,9.05,-2.35,30,228.00,11.19,-3.93,24,256.60,8.45,-6.44,16,138.30,3.80,-4.59,21,111.60,7.29,-3.87,24,169.60,9.09,-4.74,16,165.20,13.88,-4.65,4,1.08,0.70,0.77,0.42,0.45,1.36,0.44,0.94,1.16,0.74,0.30
7/2/2015 9:20 AM,238.90,0.79,-0.29,77,20.30,1.22,-0.48,88,315.70,1.22,-0.91,81,0.60,4.22,-0.93,75,21.30,4.98,-1.50,73,14.90,11.93,-2.15,50,320.90,13.53,-4.59,46,279.70,9.73,-3.38,41,350.80,14.32,-3.90,37,288.00,6.57,-4.24,41,326.40,11.46,-3.75,37,1.77,1.36,1.01,0.65,0.48,0.69,0.48,0.44,0.31,0.45,1.06
7/2/2015 9:30 AM,290.90,1.69,-0.05,66,294.40,1.09,-0.20,93,172.30,0.14,0.05,94,308.30,0.78,-0.11,92,277.90,3.93,-0.46,68,250.90,7.96,-1.04,61,246.70,8.54,-1.20,50,272.10,2.14,-2.13,53,256.50,6.55,-1.78,65,323.30,5.04,-3.33,41,281.40,8.12,-1.64,53,0.41,1.62,2.42,1.40,0.60,1.05,0.82,1.20,0.89,1.05,1.15
7/2/2015 9:40 AM,302.30,2.27,-0.11,49,327.20,2.88,-0.34,92,319.40,1.02,-0.27,93,343.60,3.60,-0.08,89,260.40,5.05,-0.65,76,223.60,5.03,-1.10,56,159.10,4.39,-1.05,67,193.70,10.33,-2.03,45,213.40,12.68,-1.79,40,300.20,4.72,-2.49,41,252.00,12.91,-2.73,50,0.34,0.40,1.36,0.61,0.54,0.52,1.76,0.92,0.49,0.79,0.55
7/2/2015 9:50 AM,295.20,1.32,-0.05,94,305.20,0.84,-0.32,93,25.50,2.53,-0.44,89,82.30,1.81,-0.78,83,66.60,4.80,-2.25,60,75.70,2.29,-2.60,44,279.40,5.47,-2.66,70,129.50,15.70,-2.73,45,271.40,11.08,-3.66,63,246.10,7.84,-1.58,45,51.10,4.08,-2.18,39,0.50,1.58,1.17,2.97,1.76,1.59,0.81,0.68,1.12,0.60,1.36
7/2/2015 10:00 AM,262.40,1.75,-0.13,95,298.60,1.91,-0.19,86,198.60,4.26,-0.67,74,204.80,3.57,-0.84,86,195.00,9.31,-1.57,80,165.60,6.74,-2.42,60,140.00,5.53,-2.92,63,149.30,4.80,-2.56,45,225.30,7.78,-2.23,38,161.90,12.79,-2.95,50,258.80,8.49,-3.29,39,0.56,0.91,0.74,0.61,0.63,2.67,0.92,1.71,0.78,0.43,0.85
7/2/2015 10:10 AM,133.50,0.60,-0.25,94,84.60,2.67,-0.94,76,308.50,0.06,-0.64,86,116.20,0.75,-0.96,89,120.10,3.85,-1.63,89,241.80,4.98,-1.40,87,192.20,5.82,-2.55,70,208.40,7.84,-4.05,62,190.40,3.85,-3.33,61,136.90,13.20,-1.98,46,310.40,4.21,-3.44,53,1.30,0.84,2.05,3.33,0.95,0.87,0.95,1.18,1.20,0.50,2.84
7/2/2015 10:20 AM,256.00,0.83,0.00,94,211.10,1.65,0.03,92,57.20,1.87,-0.45,91,66.50,1.50,-0.24,88,216.90,7.74,-0.74,56,144.30,12.43,-2.17,46,144.90,10.63,-2.11,51,219.80,15.19,-2.42,37,16.50,6.65,-2.84,34,77.20,7.50,-3.10,50,330.40,7.13,-1.57,46,1.18,1.54,3.24,2.80,0.54,1.16,0.94,0.38,0.82,1.20,4.64
7/2/2015 10:30 AM,299.00,1.80,-0.12,92,315.30,0.90,-0.30,92,63.70,1.40,-0.61,87,281.80,3.21,0.01,75,89.60,7.24,-1.99,59,254.00,3.31,-3.01,52,50.30,4.62,-1.87,41,59.60,9.80,-2.94,58,269.90,12.12,-3.65,41,69.20,3.57,-1.16,44,141.90,17.08,-0.97,45,0.31,1.34,2.85,1.04,1.27,1.16,4.75,0.98,0.37,0.93,0.70
7/2/2015 10:40 AM,356.40,1.13,-0.41,25,242.70,1.37,-0.13,91,329.90,1.69,-0.31,89,342.70,6.22,-1.38,65,175.40,5.60,-1.51,72,26.80,4.54,-2.26,59,7.00,1.69,-2.71,47,54.50,13.82,-2.84,53,74.70,11.92,-3.81,56,47.90,8.04,-2.12,59,233.10,1.64,-3.77,55,0.58,1.27,0.79,0.58,1.54,0.98,1.21,0.56,0.62,1.68,1.53
7/2/2015 10:50 AM,102.70,1.51,-0.71,57,197.90,1.36,-0.44,77,205.60,2.61,-0.31,89,113.50,1.65,-0.79,89,193.80,2.38,-1.07,69,172.10,5.99,-2.52,52,27.80,6.00,-2.65,51,331.40,4.92,-2.91,38,59.40,6.39,-2.89,47,98.10,3.69,-2.55,51,140.30,8.56,-2.58,45,0.70,0.82,0.60,1.88,2.34,0.75,4.29,0.80,0.88,0.75,0.58
7/2/2015 11:00 AM,73.20,4.71,-0.66,65,2.60,2.41,-0.56,92,272.30,2.16,-0.13,92,313.50,7.28,-1.09,78,274.50,5.72,-2.08,49,284.30,13.10,-3.05,33,284.10,4.15,-4.39,41,170.90,2.64,-2.55,40,32.80,1.93,-3.54,40,17.10,14.53,-1.92,43,334.60,14.30,-3.21,38,0.20,1.10,0.80,0.51,0.84,0.31,0.90,21.25,1.22,0.51,0.45
7/2/2015 11:10 AM,158.00,1.95,-0.16,46,353.10,0.84,-0.28,93,342.80,1.71,-0.30,81,346.20,4.20,-1.08,66,13.50,5.86,-0.22,44,335.00,5.08,-0.89,24,21.60,16.94,-0.87,28,334.40,12.07,-1.20,38,267.10,1.84,-3.46,27,44.70,20.71,-1.23,37,2.00,14.56,-1.63,27,0.51,1.33,1.20,1.06,0.70,0.55,0.55,0.83,1.52,0.41,0.43
7/2/2015 11:20 AM,85.30,1.15,-0.25,57,30.00,2.22,-0.59,92,38.50,1.17,-0.51,79,29.50,3.67,-1.04,68,32.30,2.69,-1.30,87,56.10,11.81,-3.05,45,200.00,3.88,-3.23,48,118.20,5.14,-3.63,55,45.10,12.51,-3.20,48,51.90,11.12,-2.99,45,350.70,8.25,-2.95,48,0.90,0.62,3.63,0.83,1.40,0.60,0.70,2.70,1.14,1.14,0.65
7/2/2015 11:30 AM,18.90,1.92,-0.20,81,136.70,1.39,-0.22,94,135.10,0.70,-0.37,92,57.00,0.64,-0.69,85,0.80,3.63,-0.70,87,183.20,3.47,-2.85,62,226.30,12.61,-3.63,48,257.70,5.34,-3.60,41,199.20,6.02,-3.19,47,119.60,5.57,-3.96,50,228.70,5.02,-2.44,42,0.33,1.18,3.51,2.42,0.78,0.82,0.47,1.70,0.82,1.36,0.68
7/2/2015 11:40 AM,347.70,1.92,-0.03,97,357.50,2.06,-0.22,96,346.50,1.54,-0.30,92,348.50,3.27,-0.27,92,89.90,1.75,-0.22,91,78.50,3.05,-0.07,90,200.80,12.25,-1.87,46,111.60,5.25,-0.72,53,147.80,6.75,-0.36,43,188.50,13.25,-2.05,37,184.60,10.43,-1.52,36,0.27,0.59,0.99,1.27,2.68,1.50,0.55,1.27,4.84,0.88,0.75
7/2/2015 11:50 AM,359.00,2.05,-0.01,97,2.50,2.85,-0.07,98,2.60,2.77,-0.09,97,4.30,3.01,-0.17,95,14.70,1.98,-0.23,94,8.50,3.11,-0.13,95,3.50,2.24,-0.53,79,73.10,4.55,-0.40,49,21.10,11.45,-2.26,36,105.10,4.23,-2.35,44,261.60,5.31,-2.72,41,0.20,0.12,0.34,0.64,1.21,0.54,1.41,0.71,0.58,2.81,1.31
7/2/2015 12:00 PM,324.50,1.33,-0.08,96,4.90,2.57,-0.08,97,10.70,3.60,-0.16,98,22.40,2.91,0.10,97,16.50,3.45,0.00,96,2.10,2.08,0.16,95,227.70,3.74,-0.62,59,288.30,8.00,-1.06,45,256.10,8.13,-0.85,43,236.10,16.18,-0.40,46,225.40,18.25,-3.27,54,0.67,0.40,0.31,0.39,0.40,0.90,2.22,0.70,1.10,0.70,0.53
7/2/2015 12:10 PM,14.10,1.89,-0.18,95,356.70,2.91,-0.12,98,10.40,3.00,-0.12,96,29.70,3.17,-0.16,97,3.10,4.31,-0.24,96,32.50,2.86,-0.49,91,75.30,4.76,-1.86,60,122.00,12.87,-0.25,59,129.80,13.34,-0.02,53,120.40,13.51,0.25,60,172.00,10.21,-2.42,56,0.46,0.18,0.25,0.51,0.37,0.95,1.02,0.47,0.40,0.64,0.53
7/2/2015 12:20 PM,25.80,1.33,-0.03,94,6.20,2.31,-0.07,97,11.10,2.82,-0.03,97,17.50,3.19,-0.06,97,15.10,3.21,-0.19,96,19.10,1.97,-0.26,92,137.80,2.60,-0.32,76,11.60,2.52,-1.71,38,326.60,4.08,-0.54,34,180.20,4.19,-1.99,38,177.00,7.16,-1.54,33,0.43,0.17,0.36,0.41,0.50,1.77,1.30,0.81,0.83,1.63,0.81
7/2/2015 12:30 PM,39.60,0.82,-0.12,97,7.90,1.69,0.07,97,359.30,2.32,-0.08,96,343.40,3.87,-0.17,93,356.10,4.29,-0.37,92,4.50,2.48,-0.11,94,9.40,3.28,-0.17,90,333.80,5.45,-0.70,58,171.80,7.81,-0.71,50,218.10,10.28,-0.99,49,123.80,2.53,-2.22,37,1.11,0.42,0.47,0.68,0.64,0.91,0.90,1.27,0.88,0.86,1.34